DECAYED

STARLINK-3650, 51982 (Decayed)

Orbit data source: Space-Track

STARLINK-3650, 51982 was a payload satellite owned by SpaceX/Seattle (US) in LEO that was launched on Wed, 09 Mar 2022 UTC via an FALCON 9 launch vehicle from the Air Force Eastern Test Range (AFETR). Payload-class satellites include a variety of spacecraft equipped with specific instruments for various scientific and technological missions. These include communications satellites like Starlink; space stations such as the ISS; scientific satellites like the Hubble; Earth observation satellites from companies like Planet Labs, Umbra, and HawkEye 360; GPS; miniature CubeSats for education and research; and military/defense satellites.

Not visible in the next 10 days
Identifier
51982, 2022-025AC
Orbit
Decayed
Country
Flag of USUS
Related business
Manufacturer
SpaceX/Seattle
Mission
Decayed Commercial Communications
Bus & Motor
STARLINK, Unknown motor
Mass
297 kg wet, ~275 kg dry
Launch date (UTC)
2022-03-09 (4 years ago)
Launch vehicle
FALCON 9
Launch site
Air Force Eastern Test Range (AFETR)
Object type
Payload
Rocket body
Debris
Shape & HBR
Box + 1 Pan, 10.1 m
Radar Cross Section
13.562 m², Large (>1 m²)

Expand to show TLE details & history
Last TLE update: 11 months ago

TLE from 11 months ago
0 STARLINK-3650
1 51982U 22025AC  24366.68476220  .08094430  12341-4  64903-3 0  9990
2 51982  53.1981 160.8345 0003465 284.6676 188.7737 16.39223023157092
Epoch: 2024-12-31T16:26Z
TLE epoch observation values (Epoch: 2024-12-31T16:26:03.454Z)
Latitude
47.43009°
Longitude
-60.34312°
Altitude
175.311 km
Speed
7.806 km/s
True Right ascension
19h 07m 02s
True Declination
47° 14' 36"
Sunlit
Object was in daylight at epoch
Visualization orbit readout
Latitude
Unknown
Longitude
Unknown
Altitude
Unknown
Speed
Unknown
Apparent Right ascension
Unknown
Apparent Declination
Unknown
Sunlit
N/A
Visualization observer readout
Local Sidereal Time
17:45:24
Azimuth
Unknown
Elevation
Unknown
Doppler factor
Unknown
Orbital elements
Apogee altitude
170.4 km
Perigee altitude
165.864 km
Semi-major axis
6,546.269 km
Eccentricity
0.00035
Inclination
53.1981°
RAAN
160.8345°
Arg. of periapsis
284.6676°
True anomaly
188.76765°
Mean anomaly
188.7737°
Eccentric anomaly
188.77067°
Mean motion
4.09782 °/min
Orbital period
87.85 mins
BSTAR
0.00064903
Loading maneuver chart data...
Computing Atmospheric mass density...
Loading historical data...
Loading historical data...
Loading historical data...
Loading historical data...
Loading historical data...
Loading historical data...
Loading historical data...

Documentation

Showing up to 5 results
|